Weather observations for the past three days for
Conway Horry County Airport
Imperial (Metric)
Date Time (edt) Wind (mph) Vis. (mi.) Weather Sky Cond. Temperature (ºF) Relative Humidity Wind Chill (°F) Heat Index (°F) Pressure Precipitation (in)
Air Dwpt 6 hour altimeter (in) sea level (mb) 1 hr 3 hr 6 hr
Max. Min.
11 06:55 Calm 10.00 Fair CLR 75.2 73.4 94% 74 29.91 0.0
11 06:35 Calm 10.00 Fair CLR 73.4 73.4 100% 29.9 0.0
11 06:15 Calm 10.00 Fair CLR 73.4 73.4 100% 29.9 0.0
11 05:55 Calm 1.25 Fog/Mist VV007 73.4 73.4 100% 29.89 0.0
11 05:35 Calm 1.50 Fog/Mist VV007 73.4 73.4 100% 29.89 0.0
11 05:15 Calm 5.00 Fog/Mist CLR 73.4 73.4 100% 29.88 0.0
11 04:55 Calm 10.00 Fair CLR 73.4 73.4 100% 29.87 0.0
11 04:35 Calm 10.00 Fair CLR 75.2 73.4 94% 74 29.87 0.0
11 04:15 Calm 1.25 Fog/Mist VV007 73.4 73.4 100% 29.87 0.0
11 03:55 Calm 7.00 Fair CLR 73.4 73.4 100% 29.86 0.0
11 03:35 Calm 5.00 Fog/Mist CLR 75.2 75.2 100% 73 29.87 0.0
11 03:15 Calm 2.50 Fog/Mist CLR 77 75.2 94% 78 29.86 0.0
11 02:35 Calm 10.00 Fair CLR 77 77 100% 78 29.87 0.0
11 02:15 Calm 10.00 Fair CLR 78.8 77 94% 83 29.87 0.0
11 01:35 Calm 10.00 Fair CLR 78.8 77 94% 83 29.88 0.0
11 01:15 Calm 10.00 Fair CLR 78.8 77 94% 83 29.88 0.0
11 00:15 Calm 10.00 Fair CLR 78.8 77 94% 83 29.89 0.0
10 23:55 Calm 10.00 Fair CLR 80.6 77 89% 87 29.89 0.0
10 23:35 Calm 10.00 Fair CLR 80.6 77 89% 87 29.89 0.0
10 23:15 Calm 10.00 Fair CLR 80.6 77 89% 87 29.89 0.0
10 22:55 S 3 10.00 Fair CLR 80.6 77 89% 87 29.88 0.0
10 22:35 S 3 10.00 Fair CLR 80.6 77 89% 87 29.87 0.0
10 22:15 S 3 10.00 Fair CLR 80.6 77 89% 87 29.87 0.0
10 21:55 Calm 10.00 Fair CLR 80.6 77 89% 87 29.87 0.0
10 21:35 S 3 10.00 Fair CLR 82.4 77 84% 91 29.87 0.0
10 21:15 SE 3 10.00 Fair CLR 82.4 77 84% 91 29.87 0.0
10 20:55 S 3 10.00 Fair CLR 82.4 77 84% 91 29.88 0.0
10 20:35 SE 3 10.00 Fair CLR 84.2 77 79% 94 29.87 0.0
10 20:15 S 6 10.00 Fair CLR 84.2 77 79% 94 29.87 0.0
10 19:55 SE 5 10.00 Fair CLR 86 77 75% 97 29.87 0.0
10 19:35 S 6 10.00 Fair CLR 86 77 75% 97 29.87 0.0
10 19:15 S 7 10.00 Fair CLR 87.8 77 70% 100 29.87 0.0
10 18:55 SE 5 10.00 Fair CLR 87.8 77 70% 100 29.86 0.0
10 18:35 S 7 10.00 Fair CLR 89.6 75.2 63% 100 29.86 0.0
10 18:15 S 7 10.00 Fair CLR 89.6 75.2 63% 100 29.85 0.0
10 17:55 S 10 10.00 Fair CLR 89.6 75.2 63% 100 29.85 0.0
10 17:35 S 10 10.00 Fair CLR 91.4 75.2 59% 103 29.85 0.0
10 17:15 S 9 10.00 Fair CLR 91.4 77 63% 105 29.85 0.0
10 16:55 SE 9 10.00 Partly Cloudy SCT055 SCT065 SCT075 91.4 75.2 59% 103 29.84 0.0
10 16:15 S 8 10.00 Partly Cloudy SCT050 SCT055 SCT070 89.6 77 67% 103 29.85 0.0
10 15:55 S 8 10.00 Fair CLR 91.4 73.4 56% 100 29.85 0.0
10 15:35 S 8 10.00 Fair CLR 93.2 73.4 53% 103 29.85 0.0
10 15:15 SW 6 10.00 Fair CLR 91.4 73.4 56% 100 29.86 0.0
10 14:55 S 5 10.00 Partly Cloudy SCT041 SCT049 91.4 73.4 56% 100 29.87 0.0
10 14:35 S 6 10.00 Mostly Cloudy SCT036 SCT042 BKN048 89.6 75.2 63% 100 29.88 0.0
10 13:55 SE 7 10.00 Partly Cloudy SCT029 SCT042 91.4 77 63% 105 29.89 0.0
10 13:35 SE 7 10.00 Partly Cloudy SCT029 SCT046 89.6 77 67% 103 29.89 0.0
10 13:15 S 7 10.00 Partly Cloudy SCT028 SCT033 SCT047 89.6 77 67% 103 29.9 0.0
10 12:55 SE 5 10.00 Partly Cloudy SCT030 SCT043 87.8 77 70% 100 29.9 0.0
10 12:35 Calm 10.00 Partly Cloudy SCT028 SCT034 SCT120 87.8 75.2 66% 98 29.91 0.0
10 12:15 Calm 10.00 Partly Cloudy SCT026 SCT031 87.8 75.2 66% 98 29.91 0.0
10 11:55 W 5 10.00 Partly Cloudy SCT026 SCT031 87.8 77 70% 100 29.91 0.0
10 11:35 W 3 10.00 Fair CLR 86 77 75% 97 29.92 0.0
10 11:15 SW 5 10.00 Fair CLR 82.4 78.8 89% 92 29.92 0.0
10 10:55 S 6 10.00 Fair CLR 80.6 77 89% 87 29.93 0.0
10 10:35 Calm 10.00 Fair CLR 80.6 77 89% 87 29.93 0.0
10 10:15 SW 3 10.00 Partly Cloudy SCT050 78.8 77 94% 83 29.93 0.0
10 09:55 SW 3 10.00 Fair CLR 78.8 77 94% 83 29.93 0.0
10 09:35 SW 3 5.00 Rain SCT027 SCT034 SCT045 77 77 100% 78 29.93 0.0
10 09:15 W 3 10.00 Fair CLR 78.8 77 94% 83 29.93 0.0
10 08:55 SW 6 10.00 Rain SCT047 SCT060 80.6 77 89% 87 29.93 0.0
10 08:35 Calm 10.00 Fair CLR 78.8 77 94% 83 29.93 0.0
10 08:15 Calm 10.00 Fair CLR 77 75.2 94% 78 29.93 0.0
10 07:55 Calm 10.00 Fair CLR 77 75.2 94% 78 29.92 0.0
10 07:35 Calm 10.00 Fair CLR 75.2 73.4 94% 74 29.92 0.0
10 07:15 Calm 10.00 Fair CLR 75.2 73.4 94% 74 29.91 0.0
10 06:55 Calm 10.00 Fair CLR 73.4 73.4 100% 29.92 0.0
10 06:35 Calm 7.00 Fair CLR 73.4 73.4 100% 29.92 0.0
10 06:15 Calm 10.00 Fair CLR 73.4 73.4 100% 29.91 0.0
10 05:55 Calm 10.00 Fair CLR 73.4 73.4 100% 29.91 0.0
10 05:35 Calm 10.00 Fair CLR 73.4 73.4 100% 29.91 0.0
10 05:15 Calm 10.00 Fair CLR 73.4 73.4 100% 29.9 0.0
10 04:55 Calm 10.00 Fair CLR 73.4 73.4 100% 29.91 0.0
10 04:35 Calm 10.00 Fair CLR 75.2 73.4 94% 74 29.91 0.0
10 04:15 Calm 10.00 Fair CLR 75.2 73.4 94% 74 29.91 0.0
10 03:55 Calm 10.00 Fair CLR 75.2 73.4 94% 74 29.91 0.0
10 03:35 Calm 10.00 Partly Cloudy SCT015 75.2 75.2 100% 73 29.91 0.0
10 03:15 Calm 10.00 Fair CLR 75.2 73.4 94% 74 29.91 0.0
10 02:55 Calm 5.00 Fog/Mist CLR 73.4 73.4 100% 29.91 0.0
10 02:35 Calm 10.00 Fair CLR 75.2 75.2 100% 73 29.91 0.0
10 02:15 Calm 5.00 Fog/Mist CLR 73.4 73.4 100% 29.91 0.0
10 01:55 Calm 10.00 Fair CLR 75.2 73.4 94% 74 29.92 0.0
10 01:35 Calm 10.00 Fair CLR 77 75.2 94% 78 29.92 0.0
10 01:15 Calm 10.00 Fair CLR 77 77 100% 78 29.93 0.0
10 00:55 Calm 10.00 Fair CLR 77 77 100% 78 29.93 0.0
10 00:35 Calm 10.00 Fair CLR 77 75.2 94% 78 29.94 0.0
10 00:15 Calm 10.00 Fair CLR 77 75.2 94% 78 29.94 0.0
09 23:55 Calm 10.00 Fair CLR 77 77 100% 78 29.95 0.0
09 23:35 Calm 10.00 Fair CLR 77 77 100% 78 29.96 0.0
09 23:15 Calm 10.00 Fair CLR 78.8 77 94% 83 29.96 0.0
09 22:55 Calm 10.00 Fair CLR 78.8 77 94% 83 29.96 0.0
09 22:35 Calm 10.00 Fair CLR 77 77 100% 78 29.97 0.0
09 22:15 Calm 10.00 Fair CLR 78.8 77 94% 83 29.96 0.0
09 21:55 Calm 10.00 Fair CLR 78.8 77 94% 83 29.96 0.0
09 21:35 Calm 10.00 Fair CLR 80.6 77 89% 87 29.96 0.0
09 21:15 Calm 10.00 Fair CLR 80.6 77 89% 87 29.96 0.0
09 20:55 Calm 10.00 Fair CLR 80.6 77 89% 87 29.95 0.0
09 20:35 Calm 10.00 Fair CLR 80.6 77 89% 87 29.95 0.0
09 20:15 SE 3 10.00 Fair CLR 80.6 77 89% 87 29.95 0.0
09 19:55 SE 3 10.00 Fair CLR 82.4 77 84% 91 29.95 0.0
09 19:35 S 8 10.00 Fair CLR 82.4 77 84% 91 29.95 0.0
09 19:15 S 7 10.00 Fair CLR 82.4 77 84% 91 29.95 0.0
09 18:55 SE 7 10.00 Fair CLR 82.4 77 84% 91 29.94 0.0
09 18:35 S 3 10.00 Fair CLR 82.4 77 84% 91 29.94 0.0
09 18:15 S 7 10.00 Fair CLR 87.8 77 70% 100 29.94 0.0
09 17:55 SW 6 10.00 Fair CLR 87.8 73.4 62% 96 29.94 0.0
09 17:35 S 9 10.00 Thunderstorm in Vicinity CLR 87.8 73.4 62% 96 29.93 0.0
09 17:15 S 8 G 16 10.00 Fair CLR 87.8 75.2 66% 98 29.93 0.0
09 16:55 S 10 G 17 10.00 Partly Cloudy SCT025 SCT036 87.8 75.2 66% 98 29.93 0.0
09 16:35 S 10 10.00 Partly Cloudy SCT039 87.8 77 70% 100 29.93 0.0
09 16:15 S 12 10.00 Partly Cloudy SCT026 SCT030 87.8 77 70% 100 29.94 0.0
09 15:55 SE 9 10.00 Fair CLR 87.8 77 70% 100 29.94 0.0
09 15:35 S 8 10.00 Fair CLR 87.8 77 70% 100 29.95 0.0
09 15:15 SE 9 10.00 Fair CLR 89.6 77 67% 103 29.95 0.0
09 14:55 E 7 10.00 Fair CLR 89.6 77 67% 103 29.95 0.0
09 14:35 SE 8 10.00 Fair CLR 89.6 75.2 63% 100 29.96 0.0
09 13:55 S 12 10.00 Fair CLR 89.6 77 67% 103 29.97 0.0
09 13:35 SE 8 10.00 Partly Cloudy SCT060 89.6 77 67% 103 29.97 0.0
09 13:15 E 6 10.00 Fair CLR 86 77 75% 97 29.99 0.0
09 12:55 E 5 10.00 Fair CLR 86 77 75% 97 29.99 0.0
09 12:35 E 3 10.00 Fair CLR 86 77 75% 97 29.99 0.0
09 12:15 Calm 10.00 Partly Cloudy SCT039 SCT045 86 75.2 70% 95 30 0.0
09 11:55 S 6 10.00 Partly Cloudy SCT025 SCT033 SCT039 86 75.2 70% 95 30 0.0
09 11:35 Calm 10.00 Partly Cloudy SCT023 SCT039 86 75.2 70% 95 30 0.0
09 11:15 SW 6 10.00 Partly Cloudy SCT023 SCT039 86 77 75% 97 30 0.0
09 10:55 SW 5 10.00 Fair CLR 86 75.2 70% 95 30.01 0.0
09 10:35 S 6 10.00 Fair CLR 86 75.2 70% 95 30.01 0.0
09 10:15 S 5 10.00 Fair CLR 84.2 77 79% 94 30.01 0.0
09 09:55 SW 5 10.00 Partly Cloudy SCT036 82.4 77 84% 91 30.01 0.0
09 09:35 SW 5 10.00 Partly Cloudy SCT034 SCT080 82.4 77 84% 91 30.02 0.0
09 09:15 S 3 10.00 Fair CLR 82.4 77 84% 91 30.02 0.0
09 08:55 S 6 10.00 Fair CLR 80.6 77 89% 87 30.01 0.0
Date Time (edt) Wind (mph) Vis. (mi.) Weather Sky Cond. Air Dwpt Max. Min. Relative Humidity Wind Chill (°F) Heat Index (°F) altimeter (in) sea level (mb) 1 hr 3 hr 6 hr
6 hour
Temperature (ºF) Pressure Precipitation (in)